STARLINK-30077, 57460

Orbit data source: Space-Track

STARLINK-30077, 57460 is a payload satellite owned by SpaceX/Seattle (US) in LEO that was launched on Fri, 28 Jul 2023 UTC via an FALCON 9 launch vehicle from the Air Force Eastern Test Range (AFETR). Payload-class satellites include a variety of spacecraft equipped with specific instruments for various scientific and technological missions. These include communications satellites like Starlink; space stations such as the ISS; scientific satellites like the Hubble; Earth observation satellites from companies like Planet Labs, Umbra, and HawkEye 360; GPS; miniature CubeSats for education and research; and military/defense satellites.

Loading next visibility...
Identifier
57460, 2023-107D
Orbit
LEO
Country
Flag of USUS
Related business
Manufacturer
SpaceX/Seattle
Mission
Operational Commercial Communications
Bus & Motor
STARLINK V2M, Unknown motor
Mass
730 kg wet, ~700 kg dry
Launch date (UTC)
2023-07-28 (3 years ago)
Launch vehicle
FALCON 9
Launch site
Air Force Eastern Test Range (AFETR)
Object type
Payload
Rocket body
Debris
Shape & HBR
Box + 2 Pan, 17.7 m
Radar Cross Section
33.884 m², Large (>1 m²)

Expand to show TLE details & history
Last TLE update: 2 days ago

TLE from 2 days ago
0 STARLINK-30077
1 57460U 23107D   26171.16537865 -.00002302  00000-0 -74228-4 0  9999
2 57460  43.0035 117.0216 0000646 275.1814  84.8964 15.27556242160826
Epoch: 2026-06-20T03:58Z
TLE epoch observation values (Epoch: 2026-06-20T03:58:08.715Z)
Latitude
-0.00001°
Longitude
149.10136°
Altitude
482.857 km
Speed
7.626 km/s
True Right ascension
07h 48m 05s
True Declination
0° 00' 00"
Sunlit
Object was in daylight at epoch
Visualization orbit readout
Latitude
Unknown
Longitude
Unknown
Altitude
Unknown
Speed
Unknown
Apparent Right ascension
Unknown
Apparent Declination
Unknown
Sunlit
N/A
Visualization observer readout
Local Sidereal Time
21:28:22
Azimuth
Unknown
Elevation
Unknown
Doppler factor
Unknown
Orbital elements
Apogee altitude
485.508 km
Perigee altitude
484.621 km
Semi-major axis
6,863.202 km
Eccentricity
0.00006
Inclination
43.0035°
RAAN
117.0216°
Arg. of periapsis
275.1814°
True anomaly
84.90377°
Mean anomaly
84.8964°
Eccentric anomaly
84.90009°
Mean motion
3.81727 °/min
Orbital period
94.31 mins
BSTAR
-0.000074228
Loading maneuver chart data...
Computing Atmospheric mass density...
Loading historical data...
Loading historical data...
Loading historical data...
Loading historical data...
Loading historical data...
Loading historical data...
Loading historical data...

Documentation

Showing up to 5 results
|